User: anonymous   Login
Location: Newark
(47.0000°N, 7.6833°E)
Time: 14:57:37
(UTC+00:00)
Language:

NO-84 - Orbit

View from above orbital plane
View from above orbital plane
View from above satellite
View from above satellite

Ground track
Ground track

The orbit data is extracted from the following two-line orbital elements,

1 40654U 15025D   19276.33506000  .00015139  00000 0  20507-3 0  7380
2 40654  54.9910  45.7824 0129644 239.5038 119.3118 15.48636956128968
Epoch (UTC): 03 October 2019 08:02:29
Eccentricity: 0.0129644
inclination: 54.9910°
perigee height: 332 km
apogee height: 509 km
right ascension of ascending node: 45.7824°
argument of perigee: 239.5038°
revolutions per day: 15.48636956
mean anomaly at epoch: 119.3118°
orbit number at epoch: 12896

The dashed part of the orbit path shows where the satellite is in the earth's shadow,  

DLR